[[{"header":{"parameterUnit":"m.s-1","parameterCategory":1,"la1":30.2991,"la2":30.254,"lo1":-89.0895,"lo2":-89.0444,"dy":0.0017,"dx":0.0017,"nx":28,"ny":28,"refTime":"2024-11-22T09:00:00:Z","depth":0,"parameterNumber":2,"parameterNumberName":"U-component_of_WINDS"},"data":[0,0,0,0,0,0,0,0,0,0,0,0,0,0,0,0,0,0,0,0,0,0,0,0,0,0,0,0,0,0,0,0,0,0,0,0,0,0,0,0,0,0,0,0,0,0,0,0,0,0,0,0,0,0,0,0,0,0,0.9002,0.9002,0,0.8975,0.8974,0.8974,0.8955,0.8955,0.8955,0.8955,0.8924,0.8924,0.8923,0,0,0,0,0,0,0,0,0,0,0,0,0,0.9039,0.9038,0.9002,0.9002,0.9002,0.8975,0.8974,0.8974,0.8955,0.8955,0.8955,0.8955,0.8925,0.8924,0.8923,0,0,0,0,0,0,0,0,0,0,0,0,0,0.9018,0.9038,0.9002,0.8989,0.8988,0.8975,0.8974,0.8974,0.8955,0.8955,0.8955,0.8955,0.8925,0.8924,0.8923,0.892,0,0,0.892,0.8919,0,0,0,0,0,0,0,0,0.9019,0.9017,0.8991,0.899,0.8988,0.8968,0.8976,0.8956,0.8955,0.8967,0.8955,0.8955,0.8939,0.8937,0.8932,0.8919,0.8918,0.892,0.8919,0.8919,0.8918,0,0,0,0,0,0,0,0.9021,0.9018,0.8991,0.8991,0.8989,0.8984,0.8981,0.8972,0.8955,0.8966,0.8965,0.8962,0.8938,0.8933,0.8931,0.8917,0.892,0.8919,0.8918,0.8918,0.8903,0.8903,0,0,0,0,0,0,0.9024,0.9019,0.8992,0.899,0.9004,0.8984,0.898,0.8975,0.8955,0.8951,0.8962,0.8961,0.8935,0.8932,0.893,0.8927,0.8919,0.8918,0.8917,0.8902,0.8903,0.8903,0,0,0,0,0,0,0.9025,0.9022,0.8993,0.9004,0.9,0.8984,0.8977,0.8974,0.8969,0.8952,0.8948,0.896,0.8935,0.8931,0.8923,0.8925,0.8917,0.8916,0.8902,0.8903,0.8903,0.892,0,0,0,0,0,0,0.9026,0.9023,0.9021,0.9005,0.9,0.8987,0.8977,0.8974,0.8968,0.8966,0.8949,0.8946,0.8934,0.8925,0.8922,0.8924,0.8915,0.8902,0.8902,0.8903,0.8919,0.8921,0.8922,0,0,0,0,0,0.9028,0.9026,0.9021,0.9018,0.8998,0.8987,0.8985,0.8972,0.8968,0.8967,0.8956,0.8946,0.8926,0.8924,0.8921,0.8922,0.8902,0.8902,0.8903,0.8918,0.892,0.8922,0,0,0,0,0,0,0.9042,0.9024,0.9018,0.9011,0.9001,0.8984,0.8982,0.8974,0.8965,0.8964,0.8948,0.8944,0.8938,0.8929,0.8928,0.892,0.8913,0.8913,0.8926,0.8927,0.8929,0.8931,0.8914,0,0,0,0,0,0.9045,0.9039,0.9022,0.9018,0.9013,0.8999,0.8994,0.8985,0.8974,0.8969,0.8957,0.8946,0.8938,0.8932,0.8923,0.8918,0.8914,0.8917,0.8919,0.892,0.892,0.8918,0.892,0.8905,0.8905,0.8905,0,0,0.905,0.9039,0.9036,0.9021,0.9012,0.9005,0.8995,0.8988,0.8983,0.8968,0.896,0.8951,0.8938,0.8932,0.8929,0.8925,0.8924,0.8921,0.8922,0.8921,0.8919,0.8921,0.8922,0.8905,0.8905,0.8905,0,0,0.9056,0.9047,0.9043,0.9035,0.9022,0.9013,0.9012,0.8997,0.8991,0.8983,0.8972,0.8966,0.8951,0.8942,0.8936,0.8942,0.8933,0.8939,0.8947,0.8945,0.8947,0.8948,0.895,0.8951,0.8939,0.8939,0.8939,0,0.9063,0.9053,0.9042,0.9036,0.903,0.9018,0.9014,0.9006,0.8991,0.8987,0.8983,0.8966,0.8956,0.8948,0.895,0.8945,0.8944,0.8941,0.8948,0.8948,0.8949,0.8952,0.8953,0.894,0.894,0.894,0.894,0,0.9064,0.9057,0.9056,0.9043,0.9037,0.9032,0.902,0.9015,0.9008,0.8999,0.8992,0.898,0.8969,0.8967,0.8959,0.8959,0.8957,0.8951,0.8943,0.8952,0.8954,0.8955,0.8941,0.8941,0.8941,0.8941,0,0,0.9076,0.9059,0.9058,0.9053,0.904,0.9034,0.903,0.902,0.9017,0.9007,0.9003,0.8992,0.8987,0.898,0.8971,0.897,0.8976,0.8963,0.8963,0.8967,0.8977,0.8982,0.8983,0.8971,0.8971,0.8971,0.8978,0,0.908,0.9072,0.9062,0.9057,0.9051,0.904,0.9036,0.9028,0.902,0.9014,0.9005,0.8998,0.8991,0.8987,0.8985,0.8976,0.8978,0.8975,0.8967,0.8967,0.8971,0.8984,0.8989,0.8996,0.8979,0.8979,0.8979,0,0.9083,0.9076,0.9071,0.9059,0.9057,0.9053,0.9045,0.9039,0.903,0.9024,0.9018,0.9009,0.9004,0.8998,0.8992,0.899,0.8986,0.8981,0.8981,0.898,0.8973,0.8983,0.8998,0.8999,0.898,0.898,0.898,0,0.9094,0.9082,0.9078,0.9074,0.906,0.9059,0.9053,0.9043,0.9039,0.9031,0.9029,0.902,0.9016,0.901,0.9,0.8996,0.8995,0.8987,0.899,0.899,0.899,0.899,0.9004,0.8987,0.8987,0.8987,0.8987,0,0.9099,0.9096,0.9083,0.908,0.9077,0.9067,0.9064,0.9057,0.9049,0.9045,0.9035,0.9032,0.9018,0.9014,0.9005,0.9002,0.9,0.8996,0.8993,0.8996,0.8997,0.8993,0.8993,0.8988,0.8988,0.8988,0.8987,0,0.911,0.9101,0.9095,0.9084,0.9081,0.908,0.907,0.9067,0.906,0.9055,0.9054,0.9042,0.9036,0.9025,0.9016,0.9011,0.9009,0.9005,0.9012,0.9011,0.9015,0.9015,0.9027,0.9029,0.9011,0.9011,0.9011,0,0.9113,0.9111,0.91,0.9098,0.9093,0.9088,0.9084,0.9074,0.907,0.9061,0.9059,0.9053,0.9047,0.9038,0.9029,0.9022,0.9018,0.9023,0.9017,0.9021,0.9019,0.9019,0.902,0.9024,0.9025,0.9025,0.9025,0,0.9121,0.9118,0.9113,0.9107,0.9103,0.9097,0.9091,0.9089,0.9078,0.9074,0.9069,0.9065,0.9056,0.905,0.9043,0.9037,0.9029,0.9028,0.9028,0.9031,0.9035,0.9034,0.9016,0.9027,0.9027,0.9027,0.9026,0.9026,0.9129,0.9127,0.912,0.9115,0.911,0.9105,0.9103,0.9096,0.9091,0.9084,0.9079,0.9074,0.9067,0.9056,0.9051,0.9047,0.9043,0.9044,0.9044,0.9044,0.9046,0.9036,0.9046,0.9045,0.9045,0.9045,0.9045,0,0.9137,0.9132,0.9128,0.9121,0.9117,0.9112,0.9106,0.9103,0.9099,0.9093,0.9089,0.9083,0.9078,0.9069,0.9064,0.9062,0.9059,0.9061,0.9061,0.906,0.9049,0.9049,0.9064,0.9064,0.9064,0.9064,0.9064,0.9064,0.914,0.9138,0.9134,0.9129,0.9124,0.912,0.9117,0.9113,0.9109,0.9103,0.9099,0.9094,0.9087,0.9081,0.9077,0.9074,0.9073,0.9076,0.9073,0.9062,0.9061,0.9059,0.9059,0.9076,0.9076,0.9084,0.9084,0.9085]},{"header":{"parameterUnit":"m.s-1","parameterCategory":1,"la1":30.2991,"la2":30.254,"lo1":-89.0895,"lo2":-89.0444,"dy":0.0017,"dx":0.0017,"nx":28,"ny":28,"refTime":"2024-11-22T09:00:00:Z","depth":0,"parameterNumber":3,"parameterNumberName":"V-component_of_WINDS"},"data":[0,0,0,0,0,0,0,0,0,0,0,0,0,0,0,0,0,0,0,0,0,0,0,0,0,0,0,0,0,0,0,0,0,0,0,0,0,0,0,0,0,0,0,0,0,0,0,0,0,0,0,0,0,0,0,0,0,0,-4.4463,-4.4464,0,-4.4608,-4.461,-4.4611,-4.4566,-4.4562,-4.4559,-4.4556,-4.4702,-4.4709,-4.4716,0,0,0,0,0,0,0,0,0,0,0,0,0,-4.4141,-4.4147,-4.4463,-4.4464,-4.4466,-4.4608,-4.461,-4.4612,-4.4566,-4.4562,-4.4559,-4.4555,-4.47,-4.4708,-4.4716,0,0,0,0,0,0,0,0,0,0,0,0,0,-4.4283,-4.4149,-4.4462,-4.4461,-4.4462,-4.4608,-4.461,-4.4612,-4.4567,-4.4562,-4.4558,-4.4553,-4.4697,-4.4707,-4.4717,-4.4873,0,0,-4.4748,-4.4753,0,0,0,0,0,0,0,0,-4.4275,-4.4295,-4.4459,-4.4461,-4.4463,-4.4564,-4.455,-4.47,-4.4568,-4.4527,-4.4556,-4.4551,-4.466,-4.4673,-4.471,-4.4879,-4.4886,-4.4749,-4.4755,-4.476,-4.4763,0,0,0,0,0,0,0,-4.4265,-4.4288,-4.452,-4.4461,-4.4464,-4.4451,-4.4466,-4.4578,-4.4617,-4.453,-4.4527,-4.4545,-4.466,-4.4701,-4.4713,-4.4888,-4.4749,-4.4758,-4.4764,-4.4768,-4.5189,-4.5194,0,0,0,0,0,0,-4.4255,-4.428,-4.4515,-4.4524,-4.4356,-4.4461,-4.4477,-4.4536,-4.4616,-4.4624,-4.4549,-4.4542,-4.4685,-4.4701,-4.4718,-4.4903,-4.476,-4.4769,-4.4775,-4.5184,-4.519,-4.5195,0,0,0,0,0,0,-4.4248,-4.4276,-4.451,-4.4402,-4.443,-4.4471,-4.4537,-4.4541,-4.4582,-4.463,-4.4637,-4.4584,-4.4682,-4.4704,-4.4834,-4.4908,-4.4774,-4.4783,-4.5178,-4.5186,-4.5193,-4.5276,0,0,0,0,0,0,-4.4239,-4.4274,-4.4335,-4.4403,-4.4436,-4.4625,-4.4542,-4.4548,-4.46,-4.4593,-4.4665,-4.4672,-4.468,-4.4819,-4.4844,-4.4919,-4.4791,-4.5171,-4.5181,-4.519,-4.5267,-4.5286,-4.5302,0,0,0,0,0,-4.4228,-4.4352,-4.4338,-4.4367,-4.4513,-4.4629,-4.4648,-4.4656,-4.4606,-4.4666,-4.4697,-4.467,-4.4896,-4.4833,-4.4861,-4.494,-4.5167,-4.5178,-4.5189,-4.5259,-4.5282,-4.5301,0,0,0,0,0,0,-4.4291,-4.4361,-4.4346,-4.4497,-4.4558,-4.4621,-4.4698,-4.468,-4.4756,-4.4746,-4.4752,-4.4768,-4.4901,-4.4934,-4.4862,-4.5093,-4.5024,-4.5041,-4.5067,-4.5089,-4.5106,-4.5095,-4.4799,0,0,0,0,0,-4.4322,-4.4412,-4.4468,-4.4596,-4.4627,-4.4657,-4.4708,-4.4709,-4.4771,-4.4797,-4.4837,-4.4897,-4.4982,-4.5037,-4.5118,-4.5271,-4.5285,-4.5339,-4.5357,-4.5371,-4.5386,-4.5467,-4.5491,-4.5233,-4.5233,-4.5233,0,0,-4.4388,-4.4438,-4.4494,-4.461,-4.4656,-4.4747,-4.4679,-4.4779,-4.4845,-4.4811,-4.4936,-4.4968,-4.5036,-4.5178,-4.5242,-4.5209,-4.546,-4.5385,-4.5396,-4.5403,-4.5481,-4.5505,-4.5527,-4.5241,-4.5239,-4.5238,0,0,-4.4554,-4.4602,-4.4712,-4.4761,-4.4832,-4.4852,-4.4878,-4.4944,-4.4964,-4.509,-4.5066,-4.5144,-4.5291,-4.5339,-4.5383,-4.5566,-4.5542,-4.5592,-4.5682,-4.5761,-4.5781,-4.5799,-4.5862,-4.5885,-4.5606,-4.5607,-4.5607,0,-4.4627,-4.4764,-4.4771,-4.4873,-4.4923,-4.4897,-4.5007,-4.5053,-4.5148,-4.5183,-4.5144,-4.5325,-4.5369,-4.5521,-4.5565,-4.5603,-4.5631,-4.5583,-4.5778,-4.5796,-4.5813,-4.5873,-4.5897,-4.5612,-4.5611,-4.5611,-4.561,0,-4.4849,-4.4944,-4.5024,-4.5116,-4.5176,-4.5282,-4.5303,-4.5362,-4.5358,-4.538,-4.5507,-4.5559,-4.5648,-4.5684,-4.5681,-4.5835,-4.5812,-4.5776,-4.5706,-4.5843,-4.5899,-4.5923,-4.562,-4.5618,-4.5616,-4.5615,0,0,-4.5059,-4.5153,-4.5182,-4.5222,-4.5299,-4.5372,-4.5475,-4.5563,-4.5613,-4.5679,-4.5764,-4.5887,-4.5854,-4.5903,-4.5905,-4.5975,-4.6113,-4.5929,-4.5931,-4.596,-4.6284,-4.6309,-4.6336,-4.6098,-4.6103,-4.6106,-4.6277,0,-4.5231,-4.5413,-4.5422,-4.5587,-4.5674,-4.5649,-4.5739,-4.5794,-4.5818,-4.5894,-4.5919,-4.6005,-4.5956,-4.5985,-4.6053,-4.6082,-4.6178,-4.607,-4.6176,-4.6179,-4.6158,-4.6366,-4.6394,-4.6553,-4.63,-4.6303,-4.6306,0,-4.5455,-4.5528,-4.5702,-4.5764,-4.5801,-4.5881,-4.5961,-4.6035,-4.6097,-4.6108,-4.6163,-4.6154,-4.6258,-4.6185,-4.6326,-4.6253,-4.6296,-4.6317,-4.6323,-4.6332,-4.625,-4.6379,-4.6604,-4.6628,-4.6342,-4.6339,-4.6336,0,-4.5589,-4.573,-4.5852,-4.5888,-4.5964,-4.6021,-4.6055,-4.6112,-4.6164,-4.6233,-4.6266,-4.6347,-4.6391,-4.6453,-4.6465,-4.6411,-4.6606,-4.6534,-4.6617,-4.6616,-4.6658,-4.6655,-4.6892,-4.6689,-4.6688,-4.6688,-4.6688,0,-4.5779,-4.5886,-4.5913,-4.5988,-4.6106,-4.6114,-4.6231,-4.626,-4.6311,-4.639,-4.6373,-4.6447,-4.646,-4.6536,-4.6546,-4.666,-4.668,-4.6691,-4.6692,-4.6692,-4.6691,-4.672,-4.6709,-4.6694,-4.6693,-4.6692,-4.6691,0,-4.5948,-4.5971,-4.6102,-4.6163,-4.6181,-4.6265,-4.6316,-4.6387,-4.6408,-4.6508,-4.6532,-4.6564,-4.6653,-4.6671,-4.6776,-4.6783,-4.6918,-4.6909,-4.6898,-4.6896,-4.6977,-4.6968,-4.724,-4.7275,-4.705,-4.7052,-4.7054,0,-4.6068,-4.6149,-4.6219,-4.6271,-4.6307,-4.6392,-4.6444,-4.6454,-4.6509,-4.6584,-4.6645,-4.6732,-4.6802,-4.6945,-4.6977,-4.7056,-4.7048,-4.7137,-4.706,-4.7056,-4.7047,-4.7042,-4.7049,-4.7152,-4.7154,-4.7156,-4.7158,0,-4.6276,-4.6282,-4.6359,-4.644,-4.6503,-4.6567,-4.6627,-4.667,-4.6688,-4.675,-4.6841,-4.6895,-4.7002,-4.7088,-4.7167,-4.72,-4.7182,-4.7182,-4.7205,-4.7205,-4.7194,-4.7199,-4.6937,-4.7176,-4.7174,-4.7173,-4.7172,-4.7171,-4.6423,-4.6493,-4.6553,-4.6638,-4.6685,-4.6741,-4.681,-4.6839,-4.6915,-4.7003,-4.7004,-4.7103,-4.716,-4.7265,-4.7303,-4.7378,-4.735,-4.7384,-4.7392,-4.74,-4.7406,-4.7183,-4.7393,-4.7393,-4.7392,-4.7392,-4.7391,0,-4.6628,-4.6665,-4.6744,-4.6829,-4.6895,-4.6873,-4.6938,-4.6995,-4.7082,-4.7137,-4.7206,-4.7309,-4.7392,-4.743,-4.7511,-4.7564,-4.7557,-4.7585,-4.758,-4.7588,-4.7428,-4.7399,-4.7589,-4.7589,-4.7589,-4.7589,-4.7589,-4.7589,-4.6743,-4.6861,-4.6874,-4.7014,-4.7049,-4.7146,-4.7185,-4.7236,-4.728,-4.7396,-4.7465,-4.7489,-4.7537,-4.7621,-4.7695,-4.7704,-4.7734,-4.7765,-4.777,-4.7619,-4.7599,-4.758,-4.7553,-4.7772,-4.7772,-4.7923,-4.7924,-4.7925]}]]